www.pogodaiklimat.ru

Погода и климат >> Архив погоды >> Индонезия >> Панкалпинанг


ПОГОДА в Панкалпинанге

  • Прогноз погоды в Панкалпинанге
  • Монитор погоды в Панкалпинанге

АРХИВ ПОГОДЫ в Панкалпинанге

Время (UTC), дата Ветер
(напр.,м/с)
 
Видим.   Явления Облачность Т
(С)
Тd
(С)
f
(%)
Тe
(С)
Тes
(С)
Комфортность P
(гПа)
Po
(гПа)
Тmin
(С)
Tmax
(С)
R
(мм)
R24
(мм)
S
(см)
18 12.06 З 1 7000 м {дождь} 10/4 480 м
[Cu hum Ac As Cs]
+25.4 +23.2 88 +34 +34 очень
душно
1010.7 1006.6 0.0
21 12.06 Ю 1 7000 м 10/4 480 м
[Cu hum Ac As Cs]
+25.0 +23.3 90 +33 +33 очень
душно
1009.6 1005.5
00 13.06 Ю 3 9000 м 10/5 480 м
[Cu med, cong Ac As Cs]
+25.7 +24.3 92 +36 +36 очень
душно
1011.4 1006.8 +24.6 0.7
03 13.06 В 4 7000 м слаб. дождь 10/5 480 м
[Cu med, cong Ac As Cs]
+26.8 +24.6 88 +38 +40 очень
душно
1012.7 1008.1 0.1
06 13.06 В 4 8000 м слаб. дождь 10/6 480 м
[Sc Ac As]
+28.0 +25.3 85 +41 +42 опасность
перегрева
1010.1 1005.7 0.6
09 13.06 В 5 7000 м слаб. дождь 10/5 480 м
[Sc Ac As]
+28.1 +24.1 79 +39 +39 очень
душно
1009.1 1004.6 0.0
12 13.06 В 3 7000 м {дождь} 9/4 480 м
[Sc Ac As Cs]
+27.7 +25.0 85 +40 +40 очень
душно
1010.4 1005.9 +28.5 0.0
15 13.06 В 5 5000 м слаб. дождь 10/4 480 м
[Cu hum As op Cs]
+27.1 +24.2 84 +38 +38 очень
душно
1012.2 1008.1 0.0
18 13.06 ЮВ 3 5000 м {дождь} 10/4 480 м
[Cu hum As op Cs]
+26.4 +22.4 79 +35 +35 очень
душно
1009.8 1005.7 0.0
21 13.06 Ю 1 5000 м слаб. дождь 10/4 480 м
[Cu hum As op Cs]
+25.8 +24.3 91 +36 +36 очень
душно
1008.6 1004.5 0.1
00 14.06 Ю 1 6000 м слаб. дождь 10/4 480 м
[Sc As op Cs]
+26.0 +24.6 92 +37 +37 очень
душно
1009.7 1005.6 +25.6 1
03 14.06 ЮВ 5 10 км {дождь} 8/5 480 м
[Cu med, cong Ac As Cs]
+29.4 +25.0 77 +42 +45 опасность
перегрева
1010.6 1006.5 0.0
06 14.06 ЮВ 4 10 км {дождь} 9/3 480 м
[Cu med, cong Ac trans Ci sp]
+31.6 +25.2 69 +46 +50 опасность
перегрева
1008.5 1004.4 0.0
09 14.06 ЮЗ 4 7000 м слаб. дождь 10/6 450 м
[Cb calv As op Cs]
+24.6 +23.3 92 +33 +33 очень
душно
1007.3 1003.2 5
12 14.06 Ю 1 7000 м {дождь} 10/6 450 м
[Cb cap As trans Cs]
+25.1 +24.2 95 +35 +35 очень
душно
1008.6 1004.5 +31.9 8
15 14.06 Ю 1 7000 м {дождь} 10/6 480 м
[Sc Ac As]
+26.5 +25.2 93 +38 +38 очень
душно
1011.3 1007.5 0.0
18 14.06 ЮЗ 1 5000 м слаб. дождь {гроза} 10/6 480 м
[Sc Ac As]
+25.8 +25.0 95 +37 +37 очень
душно
1010.8 1006.9 0.3
21 14.06 СЗ 2 7000 м {дождь} 10/5 420 м
[Cb cap Ac As Cs]
+25.8 +24.7 94 +37 +37 очень
душно
1009.3 1005.4 0.0
00 15.06 СВ 2 5000 м слаб. дождь 10/5 450 м
[Cb cap Ac As Cs]
+25.8 +24.6 93 +36 +37 очень
душно
1011.9 1007.8 +24.6 3
03 15.06 ЮВ 4 9000 м {дождь} 9/4 480 м
[Cu med, cong Ac As Cs]
+29.2 +24.8 77 +42 +45 опасность
перегрева
1011.8 1007.7 0.0
06 15.06 В 4 9000 м 10/5 480 м
[Cu med, cong Ac As Cs]
+29.8 +24.5 73 +42 +45 опасность
перегрева
1009.4 1005.3 0.0
09 15.06 В 5 9000 м 10/5 480 м
[Cu med, cong Ac As Cs]
+30.2 +24.9 73 +43 +44 опасность
перегрева
1006.9 1002.8
12 15.06 СВ 1 7000 м 10/5 480 м
[Cu med, cong Ac As Cs]
+27.8 +24.3 81 +39 +39 очень
душно
1009.9 1005.8 +31.6
15 15.06 Ю 1 7000 м 10/4 480 м
[Cu hum Ac As Cs]
+26.3 +24.6 90 +37 +37 очень
душно
1011.3 1007.2
18 15.06 З 1 6000 м 10/4 480 м
[Cu hum Ac As Cs]
+25.7 +24.5 93 +36 +36 очень
душно
1010.4 1006.3
21 15.06 З 1 4000 м дымка {гроза, дождь} 10/4 480 м
[Cu hum As op Cs]
+25.0 +24.2 95 +34 +34 очень
душно
1009.3 1005.2 0.4
00 16.06 ЮВ 2 4000 м слаб. ливневой дождь, в посл. час гроза 10/6 450 м
[Cb cap As op Cs]
+25.7 +25.1 96 +37 +37 очень
душно
1010.6 1006.5 +24.8 5
03 16.06 ЮВ 4 10 км {дождь} 8/4 480 м
[Cu med, cong As trans Ci sp]
+30.4 +26.0 77 +45 +49 опасность
перегрева
1011.5 1007.4 0.0
06 16.06 В 5 10 км {дождь} 8/5 480 м
[Cu med, cong Ac As Ci sp]
+31.4 +25.2 70 +45 +48 опасность
перегрева
1009.7 1005.6 0.0
09 16.06 В 5 10 км {гроза} 8/5 480 м
[Cu med, cong Ac As Cs]
+29.7 +25.3 77 +43 +44 опасность
перегрева
1009.0 1004.9
12 16.06 Ю 3 7000 м {гроза, дождь} 9/4 480 м
[Cu med, cong As trans Cs]
+25.7 +22.4 82 +34 +34 очень
душно
1009.5 1005.4 +32.2 0.0
15 16.06 Ю 2 7000 м 9/4 480 м
[Cu med, cong As trans Cs]
+25.8 +23.2 86 +35 +35 очень
душно
1011.5 1007.4
18 16.06 Ю 2 7000 м 9/4 480 м
[Cu hum Ac As Cs]
+25.6 +23.5 88 +35 +35 очень
душно
1010.7 1006.6
21 16.06 ЮВ 1 5000 м в посл. час дождь 9/4 480 м
[Cu med, cong Ac As Cs]
+25.1 +23.8 93 +34 +34 очень
душно
1009.8 1005.7 0.6
00 17.06 Ю 2 9000 м {дождь} 10/6 420 м
[Cb cap Ac As Cs]
+25.8 +24.6 93 +36 +37 очень
душно
1010.5 1005.9 +24.9 0.3
03 17.06 ЮВ 7 10 км 10/6 480 м
[Sc Ac As Cs]
+29.5 +25.3 78 +43 +44 опасность
перегрева
1011.5 1007.0
06 17.06 В 5 10 км 10/6 480 м
[Cu med, cong Ac As Cs]
+31.0 +24.9 70 +44 +46 опасность
перегрева
1007.6 1005.2
09 17.06 В 5 10 км 10/6 480 м
[Cu med, cong Ac As Cs]
+30.1 +24.9 74 +43 +44 опасность
перегрева
1008.7 1004.2
12 17.06 ЮВ 5 7000 м 10/5 480 м
[Cu med, cong Ac As Cs]
+29.0 +24.9 79 +42 +42 опасность
перегрева
1009.7 1005.2 +31.2
15 17.06 Ю 3 7000 м 9/4 480 м
[Cu hum Ac As Cs]
+27.4 +24.3 83 +38 +38 очень
душно
1011.1 1007.0
18 17.06 ЮВ 3 7000 м 9/4 480 м
[Cu hum Ac As Cs]
+27.7 +23.7 79 +38 +38 очень
душно
1010.5 1006.4
21 17.06 Ю 3 6000 м 9/4 480 м
[Cu hum Ac As Cs]
+26.1 +23.6 86 +35 +35 очень
душно
1009.5 1005.4
00 18.06 Ю 3 8000 м 8/4 450 м
[Cu hum Ac cast Ci sp]
+26.8 +24.3 86 +37 +38 очень
душно
1009.7 1005.6 +25.6
03 18.06 ЮВ 5 10 км 9/4 450 м
[Cu med, cong Ac As Ci sp]
+29.7 +25.0 76 +43 +45 опасность
перегрева
1010.7 1006.6
06 18.06 В 4 10 км 10/4 480 м
[Cu med, cong As op Cs]
+29.9 +25.3 76 +43 +47 опасность
перегрева
1009.3 1005.2
09 18.06 СВ 4 8000 м гроза без осадков 10/6 450 м
[Cb cap As op Cs]
+27.8 +24.2 81 +39 +39 очень
душно
1008.5 1004.4 0.0
12 18.06 З 1 6000 м {гроза, дождь} 10/4 480 м
[Cu hum As op Cs]
+25.5 +23.9 91 +35 +35 очень
душно
1009.9 1005.8 +31.7 0.1
15 18.06 З 1 7000 м 10/5 480 м
[Cu med, cong Ac As Cs]
+25.2 +24.1 94 +35 +35 очень
душно
1011.6 1007.0
18 18.06 ЮВ 2 5000 м слаб. дождь 10/6 480 м
[Sc Ac As]
+25.1 +24.3 95 +35 +35 очень
душно
1009.5 1005.7 3
21 18.06 ЮВ 1 7000 м {дождь} 10/6 480 м
[Cu med, cong Ac As Cs]
+25.0 +24.1 95 +34 +34 очень
душно
1009.5 1005.7 0.8
00 19.06 З 1 7000 м 10/5 480 м
[Cu med, cong Ac As Cs]
+25.0 +24.4 96 +35 +35 очень
душно
1010.5 1006.4 +24.6 3
03 19.06 СЗ 2 7000 м гроза, ливневой дождь 10/5 450 м
[Cb cap Ac As Cs]
+25.8 +24.0 90 +36 +39 очень
душно
1011.5 1007.4 4
06 19.06 СЗ 2 7000 м в посл. час дождь {гроза} 10/5 480 м
[Cu med, cong Ac As Cs]
+27.0 +24.4 86 +38 +42 очень
душно
1009.8 1005.7 3
09 19.06 ЮВ 4 8000 м 9/5 480 м
[Cu med, cong Ac As Cs]
+29.0 +24.9 79 +42 +43 опасность
перегрева
1008.4 1004.3
12 19.06 Ю 1 7000 м 9/4 480 м
[Cu med, cong Ac trans Cs]
+26.8 +24.1 85 +37 +37 очень
душно
1010.7 1005.6
15 19.06 Ю 2 7000 м 9/4 480 м
[Cu hum Ac As Cs]
+26.5 +23.9 86 +37 +37 очень
душно
1010.1 1006.5

 

Местоположение метеостанции Панкалпинанг (Индонезия): широта -2.17 долгота 106.13 высота над уровнем моря 33 м.

В архиве по умолчанию представлена погода в Панкалпинанге за последнюю неделю. Архивные данные за месяц целиком и за предыдущие месяцы, начиная с января 2011 года, Вы можете получить, выбрав интересующий диапазон дат из раскрывающегося списка и нажав кнопку "Ввод!".


*Определитесь, кто Вы:
робот инопланетянин человек

Внимание! Время в таблицах - всемирное. Для получения местного времени необходимо прибавить поправку, которая равна 7 ч.

Смотрите также архив погоды в соседних городах и на ближайших метеорологических станциях:

Погода в Палембанге (Индонезия) (178 км)
Погода в Танджунгпандане (Индонезия) (191 км)
Погода в Аэропорту Дабо (Индонезия) (255 км)
Погода в Джамби (Индонезия) (282 км)
Погода в Танджунгкаранге (Индонезия) (343 км)
Погода в Танджунгпинанге (Индонезия) (387 км)
Погода в Кетапанге (Индонезия) (427 км)
Погода в Понтианаке (Индонезия) (427 км)
Погода в Аэропорту Ханга Надима (Индонезия) (429 км)
Погода в Серанге (Индонезия) (439 км)

Пояснения к столбцам:

Ветер - указаны скорость ветра в м/с - средняя за 10 мин, порывы в срок и между сроками (в фигурных скобках) и направление, откуда дует ветер: С - северный, СВ - северо-восточный, В - восточный, ЮВ - юго-восточный, Ю - южный, ЮЗ - юго-западный, З - западный, СЗ - северо-западный.
Видимость - горизонтальная дальность видимости в метрах или километрах. При видимости от 1 до 10 км при отсутствии осадков обычно наблюдается дымка, при ухудшении видимости до 1 км и менее - туман. В сухую погоду видимость может ухудшаться дымом, пылью или мглою.
Явления - указаны атмосферные явления, наблюдавшиеся в срок или в последний час перед сроком; фигурными скобками обозначены явления, наблюдавшиеся между сроками (за 1-3 часа до срока); квадратными скобками обозначены град или гололедные отложения с указанием их диаметра в мм.
Облачность - указаны через наклонную черту общая и нижняя облачность в баллах и высота нижней границы облаков в метрах; квадратными скобками обозначены формы облаков: Ci - перистые, Cs - перисто-слоистые, Cc - перисто-кучевые, Ac - высококучевые, As - высокослоистые, Sc - слоисто-кучевые, Ns - слоисто-дождевые, Cu - кучевые, Cb - кучево-дождевые. Подробнее классификацию облаков см. в Атласе облаков (PDF).
T - Температура воздуха - температура, измеренная на высоте 2 м над землей.
Td - Температура точки росы - температура, при понижении до которой содержащийся в воздухе водяной пар достигнет насыщения.
f - Относительная влажность воздуха - влажноcть воздуха, измеренная на высоте 2 м над землей.
Te - Эффективная температура - температура, которую ощущает одетый по сезону человек в тени. Характеристика душности погоды. При расчете учитывается влияние влажности воздуха и скорости ветра на теплоощущения человека.
Tes - Эффективная температура на солнце - температура, которую ощущает человек, с поправкой на солнечный нагрев. Характеристика знойности погоды. Зависит от высоты солнца над горизонтом, облачности и скорости ветра. Ночью, в пасмурную погоду, а также при ветре 12 м/с и более поправка равна нулю.
P - Атмосферное давление - приведенное к уровню моря атмосферное давление.
Po - Атмосферное давление - измеренное на уровне метеостанции атмосферное давление.
Tmin - Минимальная температура - минимум температуры воздуха на высоте 2 м над землей.
Tmax - Максимальная температура - максимум температуры воздуха на высоте 2 м над землей.
R - Количество осадков - Количество выпавших осадков за период времени, мм. При наведении курсора мыши на число - период времени, за который выпало указанное количество осадков.
R24 - Количество осадков - Количество выпавших осадков за 24 часа, мм.
S - Снежный покров - Высота снежного покрова, см. При наведении курсора мыши на число - состояние снежного покрова и степень покрытия местности в баллах.